Regional Weather Roundup
Issued by NWS

Home | Current Version | Previous Version | Graphics & Text | Print | Product List | Glossary On
Versions: 1 2 3 4 5 6 7 8 9 10 11 12 13 14 15 16 17 18 19 20 21 22 23 24 25 26 27 28 29 30 31 32 33 34 35 36 37 38 39 40 41 42 43 44 45 46 47 48 49 50
000
ASUS44 KMEG 020610
RWRTN
TENNESSEE HOURLY STATE WEATHER ROUNDUP
NATIONAL WEATHER SERVICE MEMPHIS TN
100 AM CDT TUE SEP 02 2014

TNZ002-004-019-021-049-052-054-088>092-020700-
WEST TENNESSEE

CITY           SKY/WX    TMP DP  RH WIND       PRES   REMARKS
MEMPHIS INTL   FAIR      79  70  74 S9        30.00R
NWS MEMPHIS      N/A     80 N/A N/A MISG        N/A
JACKSON        FAIR      76  70  82 S6        30.00R
DYERSBURG      FAIR      75  64  69 S5        29.98S
UNION CITY     CLEAR     73  72  94 S3        29.96R
PARIS          CLEAR     73  70  88 S6        30.00R
HUNTINGDON     FAIR      73  69  87 S5        29.99S
LEXINGTON      CLEAR     73  70  88 CALM      30.01R
SAVANNAH       CLEAR     72  72 100 CALM      30.03R
$$

TNZ008-025-027-028-033-062-065-066-020700-
NORTH MIDDLE TENNESSEE

CITY           SKY/WX    TMP DP  RH WIND       PRES   REMARKS
NASHVILLE      FAIR      74  69  85 CALM      30.03S
DICKSON        FAIR      73  68  83 S7        30.02F
PORTLAND       FAIR      72  68  88 S7        30.02S
CLARKSVILLE    FAIR      75  70  84 CALM      30.00R
LEBANON        FAIR      71  68  90 CALM      30.02S
SMYRNA         FAIR      71  69  93 S3        30.04S
MURFREESBORO   FAIR      76  69  79 S7        30.03S
COOKEVILLE     CLEAR     72  70  94 CALM      30.06F
GALLATIN       FAIR      72  71  96 CALM      30.04S
CROSSVILLE     FAIR      70  68  93 CALM      30.13S
$$

TNZ061-075-076-078-094-096-097-020700-
SOUTH MIDDLE TENNESSEE

CITY           SKY/WX    TMP DP  RH WIND       PRES   REMARKS
LEWISBURG      FAIR      70  67  90 CALM      30.04S
FAYETTEVILLE   CLEAR     75  70  83 S7        30.07S
TULLAHOMA      CLEAR     72  68  88 CALM      30.08S
WINCHESTER     CLEAR     73  70  88 CALM      30.07S
MCMINNVILLE    CLEAR     70  70 100 CALM      30.06F
COLUMBIA         N/A     72  72 100 CALM      30.03R
SHELBYVILLE    CLEAR     73  72  94 CALM      30.06S
$$

TNZ017-018-042-046-047-020700-
NORTHEAST TENNESSEE

CITY           SKY/WX    TMP DP  RH WIND       PRES   REMARKS
TRI CITIES     FAIR      70  66  87 NW3       30.11S
ELIZABETHTON   CLEAR     66  64  94 NE3       30.13F
$$

TNZ012-013-036-069-073-074-020700-
CENTRAL EAST TENNESSEE

CITY           SKY/WX    TMP DP  RH WIND       PRES   REMARKS
KNOXVILLE      FAIR      75  70  84 W8        30.07
OAK RIDGE      FAIR      75  71  87 CALM      30.09S
GATLINBURG     CLEAR     70  66  88 CALM      30.07F
MORRISTOWN     CLEAR     72  70  94 CALM      30.10S
$$

TNZ083-085-099-020700-
SOUTHEAST TENNESSEE

CITY           SKY/WX    TMP DP  RH WIND       PRES   REMARKS
CHATTANOOGA    FAIR      76  69  79 SE5       30.07S
$$

SKY/WX REPORTED AS FAIR MEANS FEW OR NO CLOUDS BELOW
12 THOUSAND FEET.




USA.gov is the U.S. government's official web portal to all federal, state and local government web resources and services.